Weather History for Sparta, WI

Change the Weather History Date:

Wednesday, November 16, 2011

  Actual Average Record
Temperature  
Mean Temperature 32 °F -  
Max Temperature 37 °F 43 °F 71 °F (1953)
Min Temperature 27 °F 24 °F 6 °F (1959)
Degree Days  
Heating Degree Days 33    
Moisture  
Dew Point 15 °F    
Average Humidity 49    
Maximum Humidity 65    
Minimum Humidity 30    
Precipitation  
Precipitation 0.00 in - - ()
Sea Level Pressure  
Sea Level Pressure 30.03 in    
Wind  
Wind Speed 9 mph (West)    
Max Wind Speed 15 mph    
Max Gust Speed 23 mph    
Visibility 10 miles    
Events      
Averages and records for this station are not official NWS values.
T = Trace of Precipitation, MM = Missing Value Source: NWS Daily Summary

Daily Weather History Graph

Daily Weather History Graph

Search for Another Location

Airport:

Trip Planner

Search our weather history database for the weather conditions in past years. The results will help you decide how hot, cold, wet, or windy it might be!

Date:

Astronomy

Nov. 16, 2011 Rise Set
Actual Time 6:58 AM CST 4:36 PM CST
Civil Twilight 6:27 AM CST 5:07 PM CST
Nautical Twilight 5:52 AM CST 5:42 PM CST
Astronomical Twilight 5:18 AM CST 6:16 PM CST
Moon 9:52 PM CST 11:33 AM CST
Length of Visible Light 10h 39m
Length of Day
9h 37m
Waning Gibbous, 70% of the Moon is Illuminated
Nov 16
Waning Gibbous
Nov 18
Last Quarter
Nov 25
New
Dec 2
First Quarter
Dec 10
Full

Hourly Weather History & Observations

Time (CST) Temp. Windchill Dew Point Humidity Pressure Visibility Wind Dir Wind Speed Gust Speed Precip Events Conditions
12:35 AM 33.6 °F 27.5 °F 19.6 °F 56% 29.90 in 10.0 mi West 6.9 mph - N/A   Clear
12:55 AM 33.3 °F 25.7 °F 19.4 °F 57% 29.89 in 10.0 mi West 9.2 mph 16.1 mph N/A   Clear
1:35 AM 32.0 °F 24.2 °F 18.7 °F 58% 29.91 in 10.0 mi West 9.2 mph - N/A   Clear
1:55 AM 31.8 °F 22.8 °F 18.3 °F 57% 29.91 in 10.0 mi West 11.5 mph 18.4 mph N/A   Clear
2:15 AM 31.5 °F 23.5 °F 17.8 °F 57% 29.93 in 10.0 mi West 9.2 mph 18.4 mph N/A   Clear
2:35 AM 30.6 °F 21.8 °F 17.4 °F 58% 29.93 in 10.0 mi West 10.4 mph - N/A   Clear
2:55 AM 30.0 °F 21.1 °F 16.9 °F 58% 29.94 in 10.0 mi West 10.4 mph - N/A   Clear
3:15 AM 29.7 °F 20.7 °F 16.7 °F 59% 29.94 in 10.0 mi West 10.4 mph - N/A   Clear
3:35 AM 29.5 °F 23.4 °F 16.5 °F 59% 29.94 in 10.0 mi West 5.8 mph - N/A   Clear
3:55 AM 29.1 °F 22.1 °F 16.3 °F 59% 29.95 in 10.0 mi West 6.9 mph - N/A   Clear
4:15 AM 28.6 °F 20.7 °F 16.5 °F 61% 29.95 in 10.0 mi West 8.1 mph - N/A   Clear
4:35 AM 28.4 °F 19.7 °F 16.7 °F 62% 29.96 in 10.0 mi West 9.2 mph - N/A   Clear
4:55 AM 28.4 °F 19.7 °F 16.7 °F 62% 29.97 in 10.0 mi West 9.2 mph - N/A   Clear
5:35 AM 27.7 °F 18.2 °F 17.1 °F 64% 29.98 in 10.0 mi West 10.4 mph - N/A   Clear
5:55 AM 27.5 °F 18.6 °F 17.2 °F 65% 29.98 in 10.0 mi West 9.2 mph - N/A   Clear
6:15 AM 27.5 °F 18.0 °F 16.9 °F 64% 30.00 in 10.0 mi West 10.4 mph - N/A   Clear
6:35 AM 27.5 °F 20.2 °F 16.2 °F 62% 30.01 in 10.0 mi West 6.9 mph - N/A   Clear
6:55 AM 27.3 °F 19.9 °F 15.4 °F 61% 30.01 in 10.0 mi West 6.9 mph - N/A   Clear
7:35 AM 27.5 °F 21.1 °F 14.9 °F 59% 30.03 in 10.0 mi West 5.8 mph - N/A   Clear
8:15 AM 28.9 °F 21.9 °F 15.3 °F 57% 30.04 in 10.0 mi West 6.9 mph - N/A   Clear
8:35 AM 29.7 °F 21.3 °F 15.8 °F 56% 30.05 in 10.0 mi West 9.2 mph - N/A   Clear
8:55 AM 30.2 °F 21.3 °F 16.3 °F 56% 30.06 in 10.0 mi WSW 10.4 mph 17.3 mph N/A   Clear
9:15 AM 30.9 °F 22.8 °F 16.5 °F 55% 30.07 in 10.0 mi West 9.2 mph - N/A   Clear
9:35 AM 31.6 °F 22.1 °F 16.7 °F 54% 30.07 in 10.0 mi West 12.7 mph 16.1 mph N/A   Clear
10:15 AM 32.7 °F 22.5 °F 16.0 °F 50% 30.08 in 10.0 mi West 15.0 mph 18.4 mph N/A   Clear
10:35 AM 33.1 °F 26.1 °F 15.3 °F 48% 30.08 in 10.0 mi West 8.1 mph - N/A   Clear
10:55 AM 33.6 °F 25.0 °F 15.4 °F 47% 30.08 in 10.0 mi WNW 11.5 mph - N/A   Clear
11:15 AM 34.3 °F 25.9 °F 15.3 °F 46% 30.08 in 10.0 mi West 11.5 mph - N/A   Clear
11:35 AM 35.1 °F 25.5 °F 15.1 °F 44% 30.07 in 10.0 mi West 15.0 mph 18.4 mph N/A   Clear
11:55 AM 35.4 °F 27.8 °F 14.4 °F 42% 30.07 in 10.0 mi West 10.4 mph 17.3 mph N/A   Clear
12:15 PM 36.0 °F 28.0 °F 14.9 °F 42% 30.07 in 10.0 mi West 11.5 mph 16.1 mph N/A   Clear
12:35 PM 36.7 °F 28.4 °F 14.9 °F 41% 30.07 in 10.0 mi WNW 12.7 mph 20.7 mph N/A   Clear
12:55 PM 36.7 °F 28.4 °F 14.7 °F 41% 30.07 in 10.0 mi West 12.7 mph 17.3 mph N/A   Clear
1:15 PM 36.9 °F 29.1 °F 14.0 °F 39% 30.07 in 10.0 mi West 11.5 mph 23.0 mph N/A   Scattered Clouds
1:35 PM 37.4 °F 28.5 °F 13.6 °F 38% 30.06 in 10.0 mi WNW 15.0 mph 18.4 mph N/A   Scattered Clouds
1:55 PM 37.0 °F 28.1 °F 13.3 °F 38% 30.06 in 10.0 mi West 15.0 mph 21.9 mph N/A   Scattered Clouds
2:15 PM 36.9 °F 29.1 °F 12.9 °F 37% 30.06 in 10.0 mi West 11.5 mph 18.4 mph N/A   Scattered Clouds
2:35 PM 37.9 °F 29.6 °F 12.9 °F 36% 30.05 in 10.0 mi West 13.8 mph 19.6 mph N/A   Scattered Clouds
2:55 PM 37.9 °F 29.2 °F 12.6 °F 35% 30.05 in 10.0 mi WSW 15.0 mph 21.9 mph N/A   Scattered Clouds
3:15 PM 37.8 °F 31.3 °F 12.4 °F 35% 30.05 in 10.0 mi West 9.2 mph 21.9 mph N/A   Scattered Clouds
3:35 PM 37.6 °F 30.0 °F 12.7 °F 36% 30.05 in 10.0 mi West 11.5 mph 19.6 mph N/A   Clear
3:55 PM 37.0 °F 31.6 °F 12.4 °F 36% 30.05 in 10.0 mi WSW 6.9 mph - N/A   Clear
4:15 PM 36.3 °F 31.6 °F 12.0 °F 37% 30.05 in 10.0 mi WSW 5.8 mph - N/A   Clear
4:35 PM 35.4 °F 31.5 °F 12.4 °F 39% 30.05 in 10.0 mi WSW 4.6 mph - N/A   Clear
5:15 PM 34.0 °F 25.0 °F 9.7 °F 36% 30.06 in 10.0 mi West 12.7 mph 17.3 mph N/A   Clear
5:35 PM 35.2 °F 29.5 °F 6.6 °F 30% 30.07 in 10.0 mi West 6.9 mph - N/A   Clear
5:55 PM 34.7 °F 26.9 °F 7.0 °F 31% 30.07 in 10.0 mi West 10.4 mph 17.3 mph N/A   Clear
6:35 PM 34.0 °F 28.0 °F 9.7 °F 36% 30.07 in 10.0 mi West 6.9 mph - N/A   Clear
6:55 PM 32.7 °F 29.6 °F 10.6 °F 40% 30.07 in 10.0 mi West 3.5 mph - N/A   Clear
7:15 PM 32.0 °F 27.5 °F 11.1 °F 42% 30.08 in 10.0 mi West 4.6 mph - N/A   Clear
7:35 PM 32.0 °F 24.2 °F 12.2 °F 44% 30.08 in 10.0 mi West 9.2 mph - N/A   Clear
7:55 PM 32.2 °F 25.0 °F 13.3 °F 46% 30.08 in 10.0 mi West 8.1 mph - N/A   Clear
8:15 PM 31.6 °F 24.4 °F 13.8 °F 48% 30.09 in 10.0 mi West 8.1 mph - N/A   Clear
8:55 PM 31.3 °F 22.1 °F 14.5 °F 50% 30.10 in 10.0 mi WNW 11.5 mph 18.4 mph N/A   Scattered Clouds
9:15 PM 30.6 °F 22.4 °F 13.8 °F 50% 30.11 in 10.0 mi West 9.2 mph 16.1 mph N/A   Scattered Clouds
9:35 PM 29.1 °F 19.4 °F 12.0 °F 49% 30.10 in 10.0 mi West 11.5 mph 16.1 mph N/A   Scattered Clouds
9:55 PM 28.2 °F 19.5 °F 11.5 °F 50% 30.11 in 10.0 mi West 9.2 mph - N/A   Clear
10:15 PM 27.7 °F 20.4 °F 12.0 °F 52% 30.11 in 10.0 mi West 6.9 mph - N/A   Clear
10:35 PM 27.3 °F 20.9 °F 12.2 °F 53% 30.10 in 10.0 mi West 5.8 mph - N/A   Clear
10:55 PM 26.8 °F 19.3 °F 12.2 °F 54% 30.10 in 10.0 mi West 6.9 mph - N/A   Clear
11:15 PM 26.4 °F 18.9 °F 12.4 °F 55% 30.10 in 10.0 mi West 6.9 mph - N/A   Clear
11:35 PM 25.9 °F 20.3 °F 12.6 °F 57% 30.10 in 10.0 mi West 4.6 mph - N/A   Clear